Time,TemperatureF,DewpointF,PressureIn,WindDirection,WindDirectionDegrees,WindSpeedMPH,WindSpeedGustMPH,Humidity,HourlyPrecipIn,Conditions,Clouds,dailyrainin,SolarRadiationWatts/m^2,SoftwareType,DateUTC
2013-02-21 00:00:00,56.0,40.0,-100.00,SE,124,8.0,20.0,54,0.00,,,0.00,0.000000,,2013-02-21 06:00:00,
2013-02-21 00:01:00,56.0,40.0,-100.00,SE,124,8.0,20.0,54,0.00,,,0.00,0.000000,,2013-02-21 06:01:00,
2013-02-21 00:31:00,56.0,42.0,-100.00,ESE,117,8.0,18.0,60,0.00,,,0.00,0.000000,,2013-02-21 06:31:00,
2013-02-21 00:41:00,56.0,42.0,-100.00,ESE,117,8.0,18.0,60,0.00,,,0.00,0.000000,,2013-02-21 06:41:00,
2013-02-21 00:51:00,56.0,42.0,-100.00,ESE,117,8.0,18.0,60,0.00,,,0.00,0.000000,,2013-02-21 06:51:00,
2013-02-21 01:01:00,56.0,42.0,-100.00,ESE,117,8.0,18.0,60,0.00,,,0.00,0.000000,,2013-02-21 07:01:00,
2013-02-21 01:32:00,55.0,44.0,-100.00,ESE,121,9.0,20.0,67,0.00,,,-99.99,0.000000,,2013-02-21 07:32:00,
2013-02-21 01:42:00,55.0,44.0,-100.00,ESE,121,9.0,20.0,67,0.00,,,-99.99,0.000000,,2013-02-21 07:42:00,
2013-02-21 01:52:00,55.0,44.0,-100.00,ESE,121,9.0,20.0,67,0.00,,,-99.99,0.000000,,2013-02-21 07:52:00,
2013-02-21 02:01:00,55.0,44.0,-100.00,ESE,121,9.0,20.0,67,0.00,,,-99.99,0.000000,,2013-02-21 08:01:00,
2013-02-21 02:32:00,55.0,46.0,-100.00,ESE,123,7.0,18.0,72,0.00,,,-99.99,0.000000,,2013-02-21 08:32:00,
2013-02-21 02:42:00,55.0,46.0,-100.00,ESE,123,7.0,18.0,72,0.00,,,-99.99,0.000000,,2013-02-21 08:42:00,
2013-02-21 02:52:00,55.0,46.0,-100.00,ESE,123,7.0,18.0,72,0.00,,,-99.99,0.000000,,2013-02-21 08:52:00,
2013-02-21 03:01:00,55.0,46.0,-100.00,ESE,123,7.0,18.0,72,0.00,,,-99.99,0.000000,,2013-02-21 09:01:00,
2013-02-21 03:32:00,56.0,49.0,-100.00,ESE,110,8.0,17.0,76,0.00,,,0.00,0.000000,,2013-02-21 09:32:00,
2013-02-21 03:42:00,56.0,49.0,-100.00,ESE,110,8.0,17.0,76,0.00,,,0.00,0.000000,,2013-02-21 09:42:00,
2013-02-21 03:52:00,56.0,49.0,-100.00,ESE,110,8.0,17.0,76,0.00,,,0.00,0.000000,,2013-02-21 09:52:00,
2013-02-21 04:01:00,56.0,49.0,-100.00,ESE,110,8.0,17.0,76,0.00,,,0.00,0.000000,,2013-02-21 10:01:00,
2013-02-21 04:31:00,56.0,49.0,-100.00,ESE,114,7.0,15.0,77,0.00,,,0.00,0.000000,,2013-02-21 10:31:00,
2013-02-21 04:41:00,56.0,49.0,-100.00,ESE,114,7.0,15.0,77,0.00,,,0.00,0.000000,,2013-02-21 10:41:00,
2013-02-21 04:51:00,56.0,49.0,-100.00,ESE,114,7.0,15.0,77,0.00,,,0.00,0.000000,,2013-02-21 10:51:00,
2013-02-21 05:01:00,56.0,49.0,-100.00,ESE,114,7.0,15.0,77,0.00,,,0.00,0.000000,,2013-02-21 11:01:00,
2013-02-21 05:31:00,55.0,48.0,-100.00,ESE,118,9.0,17.0,78,0.00,,,0.00,0.000000,,2013-02-21 11:31:00,
2013-02-21 05:41:00,55.0,48.0,-100.00,ESE,118,9.0,17.0,78,0.00,,,0.00,0.000000,,2013-02-21 11:41:00,
2013-02-21 05:52:00,55.0,48.0,-100.00,ESE,118,9.0,17.0,78,0.00,,,0.00,0.000000,,2013-02-21 11:52:00,
2013-02-21 06:01:00,55.0,48.0,-100.00,ESE,118,9.0,17.0,78,0.00,,,0.00,0.000000,,2013-02-21 12:01:00,
2013-02-21 06:32:00,54.0,51.0,-100.00,ESE,113,7.0,15.0,90,0.00,,,0.00,0.000000,,2013-02-21 12:32:00,
2013-02-21 06:43:00,54.0,51.0,-100.00,ESE,113,7.0,15.0,90,0.00,,,0.00,0.000000,,2013-02-21 12:43:00,
2013-02-21 06:53:00,54.0,51.0,-100.00,ESE,113,7.0,15.0,90,0.00,,,0.00,0.000000,,2013-02-21 12:53:00,
2013-02-21 07:02:00,54.0,51.0,-100.00,ESE,113,7.0,15.0,90,0.00,,,0.00,0.000000,,2013-02-21 13:02:00,
2013-02-21 08:32:00,57.0,55.0,-100.00,SE,124,10.0,22.0,94,-99.99,,,0.01,6.000000,,2013-02-21 14:32:00,
2013-02-21 08:42:00,57.0,55.0,-100.00,SE,124,10.0,22.0,94,-99.99,,,0.01,6.000000,,2013-02-21 14:42:00,
2013-02-21 08:52:00,57.0,55.0,-100.00,SE,124,10.0,22.0,94,-99.99,,,0.01,6.000000,,2013-02-21 14:52:00,
2013-02-21 09:01:00,57.0,55.0,-100.00,SE,124,10.0,22.0,94,-99.99,,,0.01,6.000000,,2013-02-21 15:01:00,
2013-02-21 09:32:00,59.0,58.0,-100.00,SE,135,9.0,19.0,96,0.01,,,0.02,23.000000,,2013-02-21 15:32:00,
2013-02-21 09:42:00,59.0,58.0,-100.00,SE,135,9.0,19.0,96,0.01,,,0.02,23.000000,,2013-02-21 15:42:00,
2013-02-21 09:52:00,59.0,58.0,-100.00,SE,135,9.0,19.0,96,0.01,,,0.02,23.000000,,2013-02-21 15:52:00,
2013-02-21 10:01:00,59.0,58.0,-100.00,SE,135,9.0,19.0,96,0.01,,,0.02,23.000000,,2013-02-21 16:01:00,
2013-02-21 10:32:00,64.0,63.0,-100.00,SE,145,13.0,23.0,96,0.01,,,0.03,61.000000,,2013-02-21 16:32:00,
2013-02-21 10:42:00,64.0,63.0,-100.00,SE,145,13.0,23.0,96,0.01,,,0.03,61.000000,,2013-02-21 16:42:00,
2013-02-21 10:52:00,64.0,63.0,-100.00,SE,145,13.0,23.0,96,0.01,,,0.03,61.000000,,2013-02-21 16:52:00,
2013-02-21 11:01:00,64.0,63.0,-100.00,SE,145,13.0,23.0,96,0.01,,,0.03,61.000000,,2013-02-21 17:01:00,
2013-02-21 11:32:00,68.0,65.0,-100.00,SSE,157,12.0,26.0,90,0.00,,,0.03,133.000000,,2013-02-21 17:32:00,
2013-02-21 11:42:00,68.0,65.0,-100.00,SSE,157,12.0,26.0,90,0.00,,,0.03,133.000000,,2013-02-21 17:42:00,
2013-02-21 11:52:00,68.0,65.0,-100.00,SSE,157,12.0,26.0,90,0.00,,,0.03,133.000000,,2013-02-21 17:52:00,
2013-02-21 12:02:00,68.0,65.0,-100.00,SSE,157,12.0,26.0,90,0.00,,,0.03,133.000000,,2013-02-21 18:02:00,
2013-02-21 13:32:00,72.0,67.0,-100.00,SSE,167,11.0,24.0,84,-99.99,,,0.03,109.000000,,2013-02-21 19:32:00,
2013-02-21 13:42:00,72.0,67.0,-100.00,SSE,167,11.0,24.0,84,-99.99,,,0.03,109.000000,,2013-02-21 19:42:00,
2013-02-21 13:52:00,72.0,67.0,-100.00,SSE,167,11.0,24.0,84,-99.99,,,0.03,109.000000,,2013-02-21 19:52:00,
2013-02-21 14:01:00,72.0,67.0,-100.00,SSE,167,11.0,24.0,84,-99.99,,,0.03,109.000000,,2013-02-21 20:01:00,
2013-02-21 14:32:00,72.0,67.0,-100.00,South,183,11.0,29.0,85,0.00,,,0.03,67.000000,,2013-02-21 20:32:00,
2013-02-21 14:42:00,72.0,67.0,-100.00,South,183,11.0,29.0,85,0.00,,,0.03,67.000000,,2013-02-21 20:42:00,
2013-02-21 14:53:00,72.0,67.0,-100.00,South,183,11.0,29.0,85,0.00,,,0.03,67.000000,,2013-02-21 20:53:00,
2013-02-21 15:02:00,72.0,67.0,-100.00,South,183,11.0,29.0,85,0.00,,,0.03,67.000000,,2013-02-21 21:02:00,
2013-02-21 15:32:00,72.0,70.0,-100.00,SW,218,9.0,27.0,94,0.13,,,0.16,78.000000,,2013-02-21 21:32:00,
2013-02-21 15:42:00,72.0,70.0,-100.00,SW,218,9.0,27.0,94,0.13,,,0.16,78.000000,,2013-02-21 21:42:00,
2013-02-21 15:52:00,72.0,70.0,-100.00,SW,218,9.0,27.0,94,0.13,,,0.16,78.000000,,2013-02-21 21:52:00,
2013-02-21 16:01:00,72.0,70.0,-100.00,SW,218,9.0,27.0,94,0.13,,,0.16,78.000000,,2013-02-21 22:01:00,
2013-02-21 16:32:00,69.0,64.0,-100.00,West,270,7.0,18.0,84,0.00,,,0.16,168.000000,,2013-02-21 22:32:00,
2013-02-21 16:42:00,69.0,64.0,-100.00,West,270,7.0,18.0,84,0.00,,,0.16,168.000000,,2013-02-21 22:42:00,
2013-02-21 16:52:00,69.0,64.0,-100.00,West,270,7.0,18.0,84,0.00,,,0.16,168.000000,,2013-02-21 22:52:00,
2013-02-21 17:01:00,69.0,64.0,-100.00,West,270,7.0,18.0,84,0.00,,,0.16,168.000000,,2013-02-21 23:01:00,
2013-02-21 17:32:00,67.0,64.0,-100.00,WSW,238,3.0,15.0,89,0.00,,,0.16,45.000000,,2013-02-21 23:32:00,
2013-02-21 17:42:00,67.0,64.0,-100.00,WSW,238,3.0,15.0,89,0.00,,,0.16,45.000000,,2013-02-21 23:42:00,
2013-02-21 17:52:00,67.0,64.0,-100.00,WSW,238,3.0,15.0,89,0.00,,,0.16,45.000000,,2013-02-21 23:52:00,
2013-02-21 18:01:00,67.0,64.0,-100.00,WSW,238,3.0,15.0,89,0.00,,,0.16,45.000000,,2013-02-22 00:01:00,
2013-02-21 18:32:00,65.0,62.0,-100.00,West,266,3.0,6.0,91,0.00,,,0.16,18.000000,,2013-02-22 00:32:00,
2013-02-21 18:42:00,65.0,62.0,-100.00,West,266,3.0,6.0,91,0.00,,,0.16,18.000000,,2013-02-22 00:42:00,
2013-02-21 18:52:00,65.0,62.0,-100.00,West,266,3.0,6.0,91,0.00,,,0.16,18.000000,,2013-02-22 00:52:00,
2013-02-21 19:01:00,65.0,62.0,-100.00,West,266,3.0,6.0,91,0.00,,,0.16,18.000000,,2013-02-22 01:01:00,
2013-02-21 20:32:00,63.0,62.0,-100.00,WNW,302,2.0,5.0,97,-99.99,,,0.16,0.000000,,2013-02-22 02:32:00,
2013-02-21 20:42:00,63.0,62.0,-100.00,WNW,302,2.0,5.0,97,-99.99,,,0.16,0.000000,,2013-02-22 02:42:00,
2013-02-21 20:52:00,63.0,62.0,-100.00,WNW,302,2.0,5.0,97,-99.99,,,0.16,0.000000,,2013-02-22 02:52:00,
2013-02-21 21:01:00,63.0,62.0,-100.00,WNW,302,2.0,5.0,97,-99.99,,,0.16,0.000000,,2013-02-22 03:01:00,
2013-02-21 21:32:00,61.0,60.0,-100.00,SSE,147,3.0,4.0,98,0.00,,,0.16,0.000000,,2013-02-22 03:32:00,
2013-02-21 21:42:00,61.0,60.0,-100.00,SSE,147,3.0,4.0,98,0.00,,,0.16,0.000000,,2013-02-22 03:42:00,
2013-02-21 21:52:00,61.0,60.0,-100.00,SSE,147,3.0,4.0,98,0.00,,,0.16,0.000000,,2013-02-22 03:52:00,
2013-02-21 22:01:00,61.0,60.0,-100.00,SSE,147,3.0,4.0,98,0.00,,,0.16,0.000000,,2013-02-22 04:01:00,
2013-02-21 22:32:00,60.0,59.0,-100.00,NE,45,0.0,3.0,98,0.00,,,0.16,0.000000,,2013-02-22 04:32:00,
2013-02-21 22:42:00,60.0,59.0,-100.00,NE,45,0.0,3.0,98,0.00,,,0.16,0.000000,,2013-02-22 04:42:00,
2013-02-21 22:52:00,60.0,59.0,-100.00,NE,45,0.0,3.0,98,0.00,,,0.16,0.000000,,2013-02-22 04:52:00,
2013-02-21 23:02:00,60.0,59.0,-100.00,NE,45,0.0,3.0,98,0.00,,,0.16,0.000000,,2013-02-22 05:02:00,
2013-02-21 23:32:00,59.0,58.0,-100.00,NW,326,3.0,4.0,98,0.00,,,0.16,0.000000,,2013-02-22 05:32:00,
2013-02-21 23:42:00,59.0,58.0,-100.00,NW,326,3.0,4.0,98,0.00,,,0.16,0.000000,,2013-02-22 05:42:00,
2013-02-21 23:52:00,59.0,58.0,-100.00,NW,326,3.0,4.0,98,0.00,,,0.16,0.000000,,2013-02-22 05:52:00,